Location: *
(40.4000°N, 15.1200°E)
Time: 04:16:00
(UTC+00:00)

Cosmos 1140 Rocket - Pass Details

Date: 09 April 2020
Orbit: 745 x 767 km, 74.1° (Epoch: 26 May)

Event Time Altitude Azimuth Distance (km) Brightness Sun altitude
Rises 18:21:49 0° 186° (S) 3,202 6.6 -9.8°
Reaches altitude 10° 18:24:12 10° 183° (S) 2,278 5.8 -10.3°
Maximum altitude 18:29:16 58° 105° (ESE) 877 3.5 -11.2°
Drops below altitude 10° 18:34:19 10° 27° (NNE) 2,279 5.9 -12.1°
Sets 18:36:43 0° 24° (NNE) 3,204 6.7 -12.5°
